Home   Weather   Hiroshima   Past weeks
Flag for Japan

Past Weather in Hiroshima, Japan — Yesterday and Last 2 Weeks

Now
74 °F

Passing clouds.


Feels Like: 77 °F
Forecast: 72 / 56 °F
Wind: 7 mph from South

Location: Iwakuni Marine Corps Air Station

Current Time: Oct 14, 2019 at 2:35:29 pm

Latest Report: Oct 14, 2019 at 1:55 pm


Visibility: N/A

Pressure: 30.07 "Hg

Humidity: 50%

Dew Point: 54 °F

Location of HiroshimaLocation

Past Weather in Hiroshima — Graph

°F

Hiroshima Temperature Yesterday

Maximum temperature yesterday: 76 °F (at 1:55 pm)
Minimum temperature yesterday: 63 °F (at 11:55 pm)
Average temperature yesterday: 69 °F

High & Low Weather Summary for the Past Weeks

 TemperatureHumidityPressure
High83 °F (Oct 2, 12:55 pm)94% (Oct 1, 1:55 am)30.15 "Hg (Oct 1, 1:55 am)
Low57 °F (Oct 10, 5:55 am)40% (Oct 9, 11:55 am)29.55 "Hg (Oct 12, 1:55 pm)
Average73 °F69%29.95 "Hg
* Reported Sep 29 12:55 pm — Oct 14 12:55 pm, Hiroshima. Weather by CustomWeather, © 2019

Note: Actual official high and low records may vary slightly from our data, if they occured in-between our weather recording intervals... More about our weather records

Advertising

Hiroshima Weather History for the Previous 24 Hours

Scroll right to see more
 ConditionsComfort  
Time TempWeatherWind HumidityBarometerVisibility
12:55 pm
Mon, Oct 14
74 °FPassing clouds.6 mph45%30.08 "HgN/A
11:55 am73 °FPassing clouds.7 mph48%30.11 "HgN/A
10:55 am71 °FPassing clouds.6 mph49%30.12 "HgN/A
9:55 am70 °FPassing clouds.8 mph55%30.14 "HgN/A
8:55 am68 °FPassing clouds.5 mph57%30.14 "HgN/A
7:55 am63 °FPassing clouds.8 mph63%30.14 "HgN/A
6:55 am59 °FScattered clouds.8 mph72%30.13 "HgN/A
5:55 am59 °FPassing clouds.7 mph72%30.12 "HgN/A
4:55 am60 °FPassing clouds.7 mph69%30.11 "HgN/A
3:55 am60 °FPassing clouds.7 mph69%30.11 "HgN/A
2:55 am61 °FPassing clouds.9 mph67%30.11 "HgN/A
1:55 am61 °FPassing clouds.6 mph65%30.11 "HgN/A
12:55 am63 °FPassing clouds.10 mph63%30.11 "HgN/A
11:55 pm
Sun, Oct 13
63 °FPassing clouds.15 mph63%30.11 "HgN/A
10:55 pm64 °FPassing clouds.18 mph61%30.11 "HgN/A
9:55 pm64 °FPassing clouds.17 mph61%30.12 "HgN/A
8:55 pm65 °FPassing clouds.24 mph61%30.11 "HgN/A
7:55 pm66 °FPassing clouds.22 mph56%30.09 "HgN/A
6:55 pm68 °FPassing clouds.22 mph51%30.07 "HgN/A
5:55 pm69 °FPassing clouds.20 mph51%30.04 "HgN/A
4:55 pm73 °FPassing clouds.21 mph44%30.03 "HgN/A
3:55 pm75 °FPassing clouds.21 mph40%30.03 "HgN/A
2:55 pm76 °FPassing clouds.18 mph40%30.02 "HgN/A
Weather by CustomWeather, © 2019

See weather overview